SCP
0 0 0 1 1 1 1 1 0 0 0 0 0 0 0 0 0 0 1 0 0 0 0 0 0 0 0 0 0 0 0 0 0 0 0 0 0 0 0 0 0 0 0
0 0 0 0 1 1 1 1 0 0 0 0 0 0 0 0 0 1 1 0 0 0 0 0 0 0 0 0 0 0 0 0 0 0 0 0 0 0 0 0 0 0 0
1 0 0 0 1 1 1 1 0 0 0 0 0 0 0 0 0 1 1 0 0 0 0 0 0 0 0 0 0 0 0 0 0 0 0 0 0 0 0 0 0 0 0
0 0 0 1 1 1 1 1 0 0 0 0 0 0 0 0 0 1 0 0 0 0 0 0 0 0 0 0 0 0 0 0 0 0 0 0 0 0 0 0 0 0 0
0 0 0 0 1 1 1 1 0 0 0 0 0 0 0 0 0 1 0 0 0 0 0 0 0 0 0 0 0 0 0 0 0 0 0 0 0 0 0 0 0 0 0
0 0 0 0 1 0 1 1 1 0 0 0 0 0 0 0 0 1 0 0 0 0 0 0 0 0 0 0 0 0 0 0 0 0 0 0 0 0 0 0 0 0 0
0 0 0 0 0 0 0 1 1 0 0 0 0 0 0 0 0 0 0 0 0 0 0 0 0 0 0 0 0 0 0 0 0 0 0 0 0 0 0 0 0 0 0
0 0 0 0 0 0 0 0 1 1 0 0 0 0 0 0 0 0 1 0 0 0 0 0 0 0 0 0 0 0 0 0 0 0 0 0 0 0 0 0 0 0 0
0 0 0 0 0 0 0 0 0 1 1 0 0 0 0 0 1 1 1 1 0 0 0 0 0 0 0 0 0 0 0 0 0 0 0 0 0 0 0 0 0 -0 0
0 0 0 0 0 0 0 0 -0 1 1 0 0 0 0 0 0 2 1 1 0 0 0 0 0 0 0 0 0 0 0 0 0 0 0 0 0 0 0 0 0 0 0
0 0 0 0 0 0 -0 0 0 0 1 1 0 0 0 0 0 1 1 1 1 0 0 0 0 0 0 0 0 0 0 0 0 0 0 0 0 0 0 0 0 0 0
0 0 0 0 0 0 0 -0 0 0 0 1 1 0 0 0 0 1 1 1 1 0 0 0 0 0 0 0 0 0 0 0 0 0 0 0 0 0 0 0 0 0 0
0 0 0 0 0 0 0 0 0 0 0 1 1 0 0 0 1 1 1 1 1 0 0 0 0 0 0 0 0 0 0 0 0 0 0 0 0 0 0 0 0 0 0
0 0 0 0 0 0 0 0 0 0 1 1 1 0 0 0 1 1 0 1 1 0 0 0 0 0 0 0 0 0 0 0 0 0 0 0 0 0 0 -0 0 0 0
0 0 0 0 0 0 0 0 0 0 1 1 0 0 0 0 1 1 0 1 1 1 1 0 0 0 0 0 0 0 0 0 0 0 0 0 0 0 0 -0 0 0 0
0 0 0 0 0 0 0 0 0 0 1 1 1 0 0 0 0 1 1 1 1 1 1 0 0 0 0 0 0 0 0 0 0 0 0 0 0 0 0 0 0 0 0
0 0 0 0 0 0 -0 1 1 1 1 0 0 0 0 0 0 0 1 1 1 0 0 0 0 0 0 0 0 0 0 0 0 0 0 0 0 0 0 -0 0 0 -0
0 0 0 0 0 0 -0 1 1 1 0 1 0 0 0 1 0 0 1 1 0 0 0 0 0 0 0 0 0 0 0 0 0 0 0 -0 0 -0 -0 -0 0 0 -0
0 0 0 -0 0 0 -0 1 1 1 1 1 1 0 0 1 2 0 0 0 0 0 0 0 0 0 0 0 0 0 0 0 0 0 0 0 0 -0 -0 -0 0 -0 -0
-0 0 -0 0 0 -0 0 1 1 1 2 2 0 0 0 0 1 0 0 0 0 0 0 0 0 0 0 0 0 0 0 0 0 0 0 0 0 -0 0 0 0 0 -0
-0 -0 -0 -0 0 0 0 1 0 0 0 1 1 0 0 0 0 1 0 0 0 0 0 0 0 0 0 0 0 0 0 0 0 0 0 0 0 0 0 0 0 0 -0
-0 -0 -0 0 0 0 0 0 0 0 0 0 0 0 0 0 0 0 0 0 0 0 0 0 0 0 0 0 0 0 0 0 0 0 0 0 0 0 0 0 0 0 -0
-0 -0 -0 0 0 0 0 0 0 0 0 0 0 0 0 0 0 0 0 0 0 0 0 0 0 0 0 0 0 0 0 0 0 0 0 0 0 0 0 0 0 0 -0
0 0 0 0 0 0 0 0 0 0 0 0 0 0 1 1 0 0 0 0 0 0 0 0 0 0 0 0 0 0 0 0 0 0 0 0 0 0 0 0 0 0 -0
0 0 0 0 0 0 0 0 0 0 0 0 -0 0 0 1 0 0 0 0 0 0 0 0 0 0 0 0 0 0 0 0 0 0 0 0 0 0 0 0 0 0 -0
0 0 0 0 0 0 0 0 0 0 0 0 0 0 1 1 0 0 0 0 0 0 0 0 0 0 0 0 0 0 0 0 0 0 0 0 0 0 0 0 0 0 0
Wind_Speed_500mb
56 61 64 63 60 63 65 65 62 57 50 46 41 42 38 32 27 24 27 32 19 16 19 21 17 19 20 23 29 29 22 19 18 17 16 15 14 14 14 14 13 13 12
56 61 69 72 72 69 66 66 68 63 59 52 49 50 44 35 33 34 32 28 22 19 20 20 16 17 17 20 26 27 21 18 16 17 16 15 13 14 14 14 14 14 13
49 67 68 80 80 77 73 68 67 64 65 59 58 52 50 39 34 39 36 30 25 23 20 20 17 15 16 16 22 24 21 16 14 14 14 15 15 15 13 14 14 15 15
60 59 55 76 81 85 81 76 71 70 65 66 63 62 55 48 42 42 36 32 32 30 29 21 18 15 13 14 17 21 20 14 12 11 15 18 16 16 17 16 18 18 20
44 57 72 56 76 87 91 85 79 74 69 68 66 63 58 55 55 46 43 45 39 33 30 22 21 18 13 11 14 17 19 12 10 13 18 14 14 16 17 18 16 18 18
51 45 49 80 55 82 94 96 88 80 75 66 70 68 59 60 59 59 56 50 45 35 34 25 22 20 15 12 11 15 17 12 12 13 13 14 17 18 19 19 20 21 21
49 52 52 50 78 86 97 100 96 89 83 72 72 69 64 66 65 65 64 55 51 39 39 30 24 24 19 12 10 12 18 14 10 11 11 15 19 18 19 18 19 22 25
61 55 53 61 57 85 93 85 100 100 89 83 85 66 78 68 75 60 62 57 54 44 44 37 30 25 22 15 10 11 15 16 11 11 11 14 18 19 18 19 19 23 26
62 65 56 62 76 72 81 97 87 102 100 92 92 64 60 40 59 63 68 65 63 53 50 46 39 30 23 17 12 12 13 15 11 10 8 12 15 15 17 21 22 25 27
71 68 70 66 66 86 89 89 120 99 100 100 93 99 83 62 63 40 67 70 67 65 62 54 45 35 26 18 16 14 12 12 8 7 6 10 14 16 15 18 20 24 24
74 72 71 73 73 75 88 106 98 89 103 98 106 107 91 79 66 59 55 71 73 70 66 56 47 38 30 24 18 17 12 11 9 7 4 7 11 15 17 20 23 24 23
77 75 75 79 85 77 74 81 98 114 93 100 95 98 106 91 77 82 63 83 76 72 66 59 50 41 35 27 21 21 16 12 10 7 3 6 9 10 14 19 24 23 21
75 80 76 79 89 85 69 88 96 94 109 99 107 107 108 101 84 81 78 76 69 65 54 58 51 46 38 34 27 23 21 12 10 9 4 1 5 8 13 17 22 22 20
81 82 85 82 88 85 77 87 95 87 113 92 117 110 98 102 94 89 92 82 59 56 64 55 62 53 43 42 30 27 24 15 12 12 8 0 3 7 12 17 20 19 19
86 88 91 85 88 87 78 86 97 97 79 108 124 119 111 108 107 102 87 95 80 52 57 62 58 60 58 45 35 30 27 18 17 16 9 3 3 7 12 16 18 16 15
91 91 91 87 89 85 95 89 93 95 91 115 117 122 112 99 109 105 95 85 78 78 59 70 77 68 63 49 41 33 30 21 22 16 12 6 3 8 11 16 17 14 13
79 87 86 86 82 79 88 90 94 89 114 129 104 110 110 101 104 104 90 89 79 79 71 73 73 64 62 53 51 40 34 25 25 22 14 7 2 9 8 13 15 14 11
71 77 78 81 80 78 93 97 96 97 130 114 103 99 104 112 110 96 101 88 80 74 78 62 75 71 60 58 50 46 38 29 26 22 18 11 4 7 6 11 13 12 12
65 72 73 72 74 67 102 101 97 104 109 114 105 109 112 114 110 98 88 99 84 78 81 74 68 75 71 62 61 50 40 33 30 27 21 12 5 4 12 13 13 10 12
67 68 68 71 71 81 82 88 100 104 118 122 103 109 112 108 115 99 90 86 95 85 84 75 70 79 74 72 62 57 53 43 41 32 25 16 9 8 14 18 16 11 11
70 67 71 66 65 73 69 81 95 107 104 100 101 104 107 109 98 108 97 80 87 86 89 80 75 86 83 80 74 67 57 51 43 34 32 23 13 12 15 21 19 15 13
72 65 68 66 57 56 78 80 96 101 122 89 105 105 108 103 96 112 101 93 80 88 93 79 86 89 85 81 73 71 67 62 58 47 41 32 21 16 16 21 21 20 17
67 61 63 59 55 45 64 63 75 85 107 117 105 107 98 97 108 102 107 99 79 78 79 80 82 80 75 63 68 75 68 66 63 43 51 41 31 21 19 18 21 19 18
64 57 55 55 49 41 55 69 80 85 84 75 74 108 100 110 109 101 108 102 90 74 72 79 69 55 48 48 55 53 69 66 51 34 54 50 40 29 23 17 16 15 16
61 54 54 56 50 42 51 53 63 83 98 85 108 113 130 103 99 99 92 96 89 83 76 68 54 50 39 46 56 65 69 72 62 51 62 43 50 41 29 19 14 11 9
52 47 54 54 60 52 49 48 59 59 76 49 32 121 126 108 97 97 93 91 90 79 80 74 64 57 42 47 46 58 66 80 72 53 69 50 56 51 38 30 20 12 4
Wind_Direction_500mb
263 256 255 251 249 249 247 246 244 243 239 235 226 208 209 222 234 229 227 232 244 249 288 297 306 319 333 353 3 12 20 26 31 26 23 25 29 25 19 5 360 358 359
270 264 258 255 253 250 251 251 250 248 244 239 232 220 216 233 237 217 221 242 246 253 279 287 291 310 324 347 1 10 17 22 27 24 21 17 14 13 7 0 10 8 8
270 262 265 259 256 253 253 251 252 251 247 242 235 223 215 228 224 221 222 246 244 245 256 277 276 297 315 336 359 5 15 19 24 23 18 16 7 6 3 15 19 10 13
270 267 257 259 261 256 252 251 252 251 251 239 235 218 216 228 230 221 229 238 247 254 245 261 267 281 304 327 350 5 11 13 22 14 21 18 5 25 29 29 32 32 33
283 281 255 262 254 260 253 250 249 250 251 239 228 218 217 229 232 226 228 237 238 246 247 263 257 269 291 316 341 5 11 3 10 13 30 22 6 40 40 36 40 33 33
280 296 282 273 257 247 251 249 246 246 246 242 227 216 213 225 229 233 234 233 230 236 241 255 246 263 272 303 326 0 9 3 9 18 28 23 14 33 41 32 36 24 29
285 278 273 284 255 259 242 248 245 242 240 237 229 224 216 221 229 235 234 232 223 233 237 241 242 255 261 283 317 350 4 3 9 20 25 26 25 25 45 40 29 27 27
285 277 274 268 267 260 259 239 242 239 236 230 226 223 216 215 221 225 225 230 228 229 235 233 235 243 258 271 302 333 351 353 4 9 21 30 23 22 35 41 32 25 24
282 277 277 268 267 269 269 248 238 237 233 231 228 213 200 205 215 222 227 224 226 229 235 231 228 224 244 263 288 304 330 341 350 348 23 31 28 24 37 35 29 28 17
291 284 282 276 275 271 268 261 258 229 228 228 225 216 216 212 199 202 215 218 227 228 230 228 224 217 229 245 276 283 307 328 328 328 25 33 27 8 17 30 19 22 17
291 290 286 285 283 275 271 262 259 248 222 222 222 212 211 210 211 201 198 209 220 224 230 229 224 219 230 229 257 277 280 306 298 304 4 39 35 18 7 19 13 17 17
292 288 289 289 289 279 267 266 261 250 244 223 220 210 210 205 207 204 201 205 207 216 220 224 222 224 228 227 243 263 264 281 291 282 294 38 42 16 6 20 13 16 22
287 286 286 291 292 280 260 262 250 259 240 216 218 211 211 211 211 209 211 207 196 206 208 220 222 226 229 228 235 254 249 268 281 260 251 40 50 7 352 26 19 14 28
285 288 290 297 288 278 251 253 253 252 234 227 223 215 211 214 211 217 214 213 187 193 198 207 213 221 226 230 228 245 240 247 255 238 224 272 23 6 345 17 26 16 34
278 284 287 292 284 280 257 251 246 244 224 210 219 219 219 221 220 217 221 220 207 189 195 204 211 220 218 217 227 231 233 239 235 221 212 223 310 350 342 14 22 20 29
273 276 282 285 279 285 266 246 236 225 214 206 218 220 221 217 219 219 222 225 220 216 192 203 214 213 209 211 220 220 223 225 223 207 203 237 336 334 346 11 15 17 23
275 271 278 281 282 286 258 247 230 222 200 203 211 224 222 219 221 223 219 224 223 218 208 207 216 213 202 207 210 209 215 220 214 201 197 220 316 304 355 10 6 9 5
276 273 280 281 282 284 250 245 229 213 190 197 209 219 223 224 223 224 217 218 217 219 217 215 210 204 204 206 209 211 204 207 209 203 200 185 259 324 21 20 6 1 15
280 276 283 288 280 280 267 223 221 215 204 201 212 216 222 221 216 220 220 216 220 224 223 221 210 203 199 197 199 202 202 202 192 199 200 173 219 40 53 38 18 32 30
284 279 283 293 296 284 230 222 219 197 194 195 213 222 223 221 216 215 218 218 216 220 218 214 210 196 194 191 200 199 189 194 195 194 192 183 180 116 62 43 43 44 45
283 280 286 292 297 297 238 222 215 198 200 203 213 226 224 224 218 211 213 210 213 217 211 207 200 192 188 192 196 200 200 192 192 201 196 187 174 138 79 53 46 45 54
286 276 283 295 303 280 230 217 213 210 202 195 205 215 226 225 221 214 212 214 213 213 210 202 199 195 193 195 199 201 196 187 188 196 196 179 158 136 91 66 55 55 60
290 275 279 295 292 286 220 200 183 195 212 214 217 212 219 221 220 215 212 214 212 216 216 208 202 199 199 207 206 201 200 206 198 193 186 181 165 147 114 85 70 63 65
296 276 275 291 291 300 245 220 218 217 228 213 211 216 213 214 214 214 213 212 214 219 220 220 225 231 225 225 215 215 204 197 193 193 183 183 171 162 139 117 90 74 55
299 275 273 283 288 298 267 232 218 221 221 226 238 233 212 209 206 204 206 208 212 217 217 219 217 213 220 218 215 205 198 189 187 188 184 195 177 168 158 149 129 110 69
297 277 278 281 299 295 264 234 212 202 200 227 189 185 193 200 196 199 202 203 207 206 204 203 202 204 206 215 217 215 202 191 190 183 190 197 184 171 169 173 162 152 146
Wind_Speed_850mb
56 61 64 63 60 63 65 65 62 57 50 46 41 42 38 32 27 24 27 32 19 16 19 21 17 19 20 23 29 29 22 19 18 17 16 15 14 14 14 14 13 13 12
56 61 69 72 72 69 66 66 68 63 59 52 49 50 44 35 33 34 32 28 22 19 20 20 16 17 17 20 26 27 21 18 16 17 16 15 13 14 14 14 14 14 13
49 67 68 80 80 77 73 68 67 64 65 59 58 52 50 39 34 39 36 30 25 23 20 20 17 15 16 16 22 24 21 16 14 14 14 15 15 15 13 14 14 15 15
60 59 55 76 81 85 81 76 71 70 65 66 63 62 55 48 42 42 36 32 32 30 29 21 18 15 13 14 17 21 20 14 12 11 15 18 16 16 17 16 18 18 20
44 57 72 56 76 87 91 85 79 74 69 68 66 63 58 55 55 46 43 45 39 33 30 22 21 18 13 11 14 17 19 12 10 13 18 14 14 16 17 18 16 18 18
51 45 49 80 55 82 94 96 88 80 75 66 70 68 59 60 59 59 56 50 45 35 34 25 22 20 15 12 11 15 17 12 12 13 13 14 17 18 19 19 20 21 21
49 52 52 50 78 86 97 100 96 89 83 72 72 69 64 66 65 65 64 55 51 39 39 30 24 24 19 12 10 12 18 14 10 11 11 15 19 18 19 18 19 22 25
61 55 53 61 57 85 93 85 100 100 89 83 85 66 78 68 75 60 62 57 54 44 44 37 30 25 22 15 10 11 15 16 11 11 11 14 18 19 18 19 19 23 26
62 65 56 62 76 72 81 97 87 102 100 92 92 64 60 40 59 63 68 65 63 53 50 46 39 30 23 17 12 12 13 15 11 10 8 12 15 15 17 21 22 25 27
71 68 70 66 66 86 89 89 120 99 100 100 93 99 83 62 63 40 67 70 67 65 62 54 45 35 26 18 16 14 12 12 8 7 6 10 14 16 15 18 20 24 24
74 72 71 73 73 75 88 106 98 89 103 98 106 107 91 79 66 59 55 71 73 70 66 56 47 38 30 24 18 17 12 11 9 7 4 7 11 15 17 20 23 24 23
77 75 75 79 85 77 74 81 98 114 93 100 95 98 106 91 77 82 63 83 76 72 66 59 50 41 35 27 21 21 16 12 10 7 3 6 9 10 14 19 24 23 21
75 80 76 79 89 85 69 88 96 94 109 99 107 107 108 101 84 81 78 76 69 65 54 58 51 46 38 34 27 23 21 12 10 9 4 1 5 8 13 17 22 22 20
81 82 85 82 88 85 77 87 95 87 113 92 117 110 98 102 94 89 92 82 59 56 64 55 62 53 43 42 30 27 24 15 12 12 8 0 3 7 12 17 20 19 19
86 88 91 85 88 87 78 86 97 97 79 108 124 119 111 108 107 102 87 95 80 52 57 62 58 60 58 45 35 30 27 18 17 16 9 3 3 7 12 16 18 16 15
91 91 91 87 89 85 95 89 93 95 91 115 117 122 112 99 109 105 95 85 78 78 59 70 77 68 63 49 41 33 30 21 22 16 12 6 3 8 11 16 17 14 13
79 87 86 86 82 79 88 90 94 89 114 129 104 110 110 101 104 104 90 89 79 79 71 73 73 64 62 53 51 40 34 25 25 22 14 7 2 9 8 13 15 14 11
71 77 78 81 80 78 93 97 96 97 130 114 103 99 104 112 110 96 101 88 80 74 78 62 75 71 60 58 50 46 38 29 26 22 18 11 4 7 6 11 13 12 12
65 72 73 72 74 67 102 101 97 104 109 114 105 109 112 114 110 98 88 99 84 78 81 74 68 75 71 62 61 50 40 33 30 27 21 12 5 4 12 13 13 10 12
67 68 68 71 71 81 82 88 100 104 118 122 103 109 112 108 115 99 90 86 95 85 84 75 70 79 74 72 62 57 53 43 41 32 25 16 9 8 14 18 16 11 11
70 67 71 66 65 73 69 81 95 107 104 100 101 104 107 109 98 108 97 80 87 86 89 80 75 86 83 80 74 67 57 51 43 34 32 23 13 12 15 21 19 15 13
72 65 68 66 57 56 78 80 96 101 122 89 105 105 108 103 96 112 101 93 80 88 93 79 86 89 85 81 73 71 67 62 58 47 41 32 21 16 16 21 21 20 17
67 61 63 59 55 45 64 63 75 85 107 117 105 107 98 97 108 102 107 99 79 78 79 80 82 80 75 63 68 75 68 66 63 43 51 41 31 21 19 18 21 19 18
64 57 55 55 49 41 55 69 80 85 84 75 74 108 100 110 109 101 108 102 90 74 72 79 69 55 48 48 55 53 69 66 51 34 54 50 40 29 23 17 16 15 16
61 54 54 56 50 42 51 53 63 83 98 85 108 113 130 103 99 99 92 96 89 83 76 68 54 50 39 46 56 65 69 72 62 51 62 43 50 41 29 19 14 11 9
52 47 54 54 60 52 49 48 59 59 76 49 32 121 126 108 97 97 93 91 90 79 80 74 64 57 42 47 46 58 66 80 72 53 69 50 56 51 38 30 20 12 4
Wind_Direction_850mb
263 256 255 251 249 249 247 246 244 243 239 235 226 208 209 222 234 229 227 232 244 249 288 297 306 319 333 353 3 12 20 26 31 26 23 25 29 25 19 5 360 358 359
270 264 258 255 253 250 251 251 250 248 244 239 232 220 216 233 237 217 221 242 246 253 279 287 291 310 324 347 1 10 17 22 27 24 21 17 14 13 7 0 10 8 8
270 262 265 259 256 253 253 251 252 251 247 242 235 223 215 228 224 221 222 246 244 245 256 277 276 297 315 336 359 5 15 19 24 23 18 16 7 6 3 15 19 10 13
270 267 257 259 261 256 252 251 252 251 251 239 235 218 216 228 230 221 229 238 247 254 245 261 267 281 304 327 350 5 11 13 22 14 21 18 5 25 29 29 32 32 33
283 281 255 262 254 260 253 250 249 250 251 239 228 218 217 229 232 226 228 237 238 246 247 263 257 269 291 316 341 5 11 3 10 13 30 22 6 40 40 36 40 33 33
280 296 282 273 257 247 251 249 246 246 246 242 227 216 213 225 229 233 234 233 230 236 241 255 246 263 272 303 326 0 9 3 9 18 28 23 14 33 41 32 36 24 29
285 278 273 284 255 259 242 248 245 242 240 237 229 224 216 221 229 235 234 232 223 233 237 241 242 255 261 283 317 350 4 3 9 20 25 26 25 25 45 40 29 27 27
285 277 274 268 267 260 259 239 242 239 236 230 226 223 216 215 221 225 225 230 228 229 235 233 235 243 258 271 302 333 351 353 4 9 21 30 23 22 35 41 32 25 24
282 277 277 268 267 269 269 248 238 237 233 231 228 213 200 205 215 222 227 224 226 229 235 231 228 224 244 263 288 304 330 341 350 348 23 31 28 24 37 35 29 28 17
291 284 282 276 275 271 268 261 258 229 228 228 225 216 216 212 199 202 215 218 227 228 230 228 224 217 229 245 276 283 307 328 328 328 25 33 27 8 17 30 19 22 17
291 290 286 285 283 275 271 262 259 248 222 222 222 212 211 210 211 201 198 209 220 224 230 229 224 219 230 229 257 277 280 306 298 304 4 39 35 18 7 19 13 17 17
292 288 289 289 289 279 267 266 261 250 244 223 220 210 210 205 207 204 201 205 207 216 220 224 222 224 228 227 243 263 264 281 291 282 294 38 42 16 6 20 13 16 22
287 286 286 291 292 280 260 262 250 259 240 216 218 211 211 211 211 209 211 207 196 206 208 220 222 226 229 228 235 254 249 268 281 260 251 40 50 7 352 26 19 14 28
285 288 290 297 288 278 251 253 253 252 234 227 223 215 211 214 211 217 214 213 187 193 198 207 213 221 226 230 228 245 240 247 255 238 224 272 23 6 345 17 26 16 34
278 284 287 292 284 280 257 251 246 244 224 210 219 219 219 221 220 217 221 220 207 189 195 204 211 220 218 217 227 231 233 239 235 221 212 223 310 350 342 14 22 20 29
273 276 282 285 279 285 266 246 236 225 214 206 218 220 221 217 219 219 222 225 220 216 192 203 214 213 209 211 220 220 223 225 223 207 203 237 336 334 346 11 15 17 23
275 271 278 281 282 286 258 247 230 222 200 203 211 224 222 219 221 223 219 224 223 218 208 207 216 213 202 207 210 209 215 220 214 201 197 220 316 304 355 10 6 9 5
276 273 280 281 282 284 250 245 229 213 190 197 209 219 223 224 223 224 217 218 217 219 217 215 210 204 204 206 209 211 204 207 209 203 200 185 259 324 21 20 6 1 15
280 276 283 288 280 280 267 223 221 215 204 201 212 216 222 221 216 220 220 216 220 224 223 221 210 203 199 197 199 202 202 202 192 199 200 173 219 40 53 38 18 32 30
284 279 283 293 296 284 230 222 219 197 194 195 213 222 223 221 216 215 218 218 216 220 218 214 210 196 194 191 200 199 189 194 195 194 192 183 180 116 62 43 43 44 45
283 280 286 292 297 297 238 222 215 198 200 203 213 226 224 224 218 211 213 210 213 217 211 207 200 192 188 192 196 200 200 192 192 201 196 187 174 138 79 53 46 45 54
286 276 283 295 303 280 230 217 213 210 202 195 205 215 226 225 221 214 212 214 213 213 210 202 199 195 193 195 199 201 196 187 188 196 196 179 158 136 91 66 55 55 60
290 275 279 295 292 286 220 200 183 195 212 214 217 212 219 221 220 215 212 214 212 216 216 208 202 199 199 207 206 201 200 206 198 193 186 181 165 147 114 85 70 63 65
296 276 275 291 291 300 245 220 218 217 228 213 211 216 213 214 214 214 213 212 214 219 220 220 225 231 225 225 215 215 204 197 193 193 183 183 171 162 139 117 90 74 55
299 275 273 283 288 298 267 232 218 221 221 226 238 233 212 209 206 204 206 208 212 217 217 219 217 213 220 218 215 205 198 189 187 188 184 195 177 168 158 149 129 110 69
297 277 278 281 299 295 264 234 212 202 200 227 189 185 193 200 196 199 202 203 207 206 204 203 202 204 206 215 217 215 202 191 190 183 190 197 184 171 169 173 162 152 146